CAPE
1207 1386 1643 1745 1802 1627 1652 1722 1971 2186 1867 1398 1890 1998 2100 1761 1877 1905 1851 1795 1802 1601 1548 1620 1780 1798 1749 1673 1540 1288 1118 1123 1198 1081 815 804 855 945 1055 1164 1286 1300 1116 999 762 722 610 546 390 197 102 287 156 15 42 68 150 94 89 79 226 148 310
1495 1480 1480 1461 1613 1689 1832 1844 1587 1383 1302 1188 1130 1304 1299 1072 1229 1426 1747 1649 1422 985 766 882 1612 1894 1978 1964 1744 1432 1301 1227 1225 1137 605 832 988 1115 1224 849 787 758 805 887 770 651 644 608 464 391 37 15 10 7 9 32 11 47 87 56 75 28 33
1557 1484 1489 1418 1507 1715 1934 1799 1334 1148 1090 1202 1260 1126 1035 968 889 898 822 696 811 510 307 282 427 998 1862 2039 1803 1561 1439 1265 1322 1162 958 512 657 501 764 771 769 682 621 666 691 603 468 622 314 313 369 254 21 3 16 60 68 18 21 15 77 36 1
1716 1620 1595 1656 1808 1984 1663 1160 1163 978 835 848 965 1007 911 642 765 631 483 479 484 485 298 290 514 341 688 1131 1849 1878 1641 1470 1388 1489 1263 847 787 884 801 861 860 745 608 479 517 408 447 532 486 261 265 266 61 4 1 4 17 18 18 26 31 6 0
1309 1540 1868 2057 2004 1739 1212 1053 864 799 815 776 801 736 784 752 768 690 629 542 458 433 415 365 324 229 386 532 784 1236 1726 1778 1575 1453 1739 1494 1265 1137 1126 1037 1024 840 487 543 391 449 631 626 507 305 115 16 8 8 1 2 1 23 52 76 18 1 0
1649 1590 1680 1908 1676 1401 1088 936 919 700 662 746 740 711 842 890 716 724 604 488 460 475 415 374 422 374 443 504 652 859 1030 1468 1767 1665 1484 1594 1423 1310 1158 1120 775 642 639 720 591 524 580 626 515 323 244 117 45 15 14 0 4 1 2 1 0 0 0
1866 1928 1684 1590 1482 1369 1130 1024 863 768 662 741 678 650 653 752 629 599 639 480 499 504 501 479 506 516 517 210 458 528 909 1246 1627 1706 1733 1824 1694 1589 1503 1308 1164 1023 889 840 770 689 662 657 459 396 214 72 15 8 8 5 0 0 0 0 0 0 0
1907 1756 1569 1532 1493 1454 1339 1006 772 593 594 547 554 720 688 774 789 664 520 390 364 493 500 456 397 408 359 50 103 284 228 332 991 1399 1394 1634 1786 1691 1665 1430 1202 1069 990 888 919 715 527 581 467 382 160 67 30 21 29 10 1 0 0 0 2 0 0
1426 1470 1434 1383 1516 1320 957 755 689 554 490 573 672 754 916 759 644 520 332 278 228 324 289 218 143 57 52 38 15 120 90 92 564 1147 992 1420 1689 1868 1769 1481 1114 993 1012 956 849 682 457 510 522 415 160 79 73 100 149 61 28 0 2 2 0 0 0
1650 1331 1356 1306 1409 1212 945 718 594 574 736 647 733 877 849 732 549 413 232 186 161 145 94 50 22 2 22 64 82 251 225 304 210 180 332 622 1724 1835 1778 1444 1247 1075 1008 1038 772 736 703 688 552 425 101 46 97 122 79 4 0 0 0 0 0 0 0
1548 1568 1425 1412 1393 1352 1151 804 865 769 604 647 653 740 737 810 755 356 157 75 115 121 93 1 0 0 3 11 46 81 145 183 114 124 237 418 1279 1648 1576 1468 1260 984 1081 1122 1026 1040 944 758 186 7 14 21 6 4 5 8 0 1 0 0 0 0 0
932 885 891 1012 1265 1170 1158 964 706 607 814 651 501 646 697 663 504 231 90 22 49 71 70 37 0 0 0 0 0 0 94 23 0 8 223 653 933 1154 1447 1318 996 1043 1122 1243 1162 974 687 140 4 2 0 3 2 0 0 0 2 0 0 0 0 0 0
1097 814 831 982 1114 1051 941 801 758 834 635 375 392 525 471 472 297 149 62 1 0 0 0 0 0 0 0 0 0 0 0 0 0 7 172 442 340 717 968 876 517 951 1027 1090 874 472 287 30 2 0 0 0 0 0 0 0 0 0 0 0 0 0 0
1078 736 835 1138 959 890 851 797 668 498 384 271 433 507 474 297 147 100 8 0 0 0 0 0 0 0 0 0 0 0 0 0 0 4 106 421 190 232 91 190 370 596 782 498 298 336 79 40 8 0 0 0 0 0 0 8 3 0 0 0 0 0 0
1314 913 1089 1147 856 787 748 717 609 373 193 337 480 455 309 206 128 33 0 0 0 0 0 0 0 0 0 0 0 0 0 0 0 2 54 14 253 200 262 52 15 344 296 183 204 52 42 10 0 0 0 0 0 0 0 0 0 0 0 0 0 0 0
1237 1303 1196 976 803 628 691 626 564 288 191 226 397 344 238 200 101 3 0 0 0 0 0 0 0 0 0 0 0 0 0 0 0 0 8 12 5 75 218 267 324 438 268 238 218 9 22 6 0 0 0 0 0 0 0 0 0 0 0 0 0 0 0
1231 1191 1139 945 766 559 561 490 377 220 155 142 203 293 256 149 70 2 0 0 0 0 0 0 0 0 0 0 0 0 0 0 0 0 0 0 2 10 32 177 288 448 436 335 172 35 40 12 1 0 0 3 0 0 0 0 0 0 0 0 0 0 0
1277 1218 1130 864 993 754 600 461 353 232 197 154 136 205 149 131 45 1 0 0 0 0 0 0 0 0 0 0 0 0 0 0 0 0 4 4 2 11 21 17 24 124 372 263 311 113 36 71 8 6 1 0 0 0 0 0 0 0 0 0 0 0 0
1234 1319 1166 1109 1082 812 562 455 421 282 162 140 117 86 113 88 18 0 0 0 0 0 0 0 0 0 0 1 1 1 0 1 0 0 2 2 5 21 22 16 22 30 109 155 144 214 105 192 48 27 34 6 1 0 0 0 0 0 0 0 0 0 0
858 600 685 940 870 599 447 381 299 180 117 107 74 32 58 66 14 0 0 0 0 0 0 0 0 0 1 27 49 66 70 62 60 57 40 28 25 20 10 17 38 38 16 5 15 81 204 257 180 147 49 116 22 5 5 0 0 0 0 0 0 0 0
276 232 193 241 352 449 526 469 238 128 83 66 37 11 6 28 15 1 0 0 0 0 0 0 3 24 34 60 82 122 152 149 154 186 223 204 244 205 120 52 18 14 8 10 13 30 63 57 22 150 72 153 100 11 17 18 6 0 0 0 0 0 0
157 138 147 38 122 241 299 314 309 236 132 92 63 15 0 5 11 8 0 0 6 28 18 35 74 110 154 142 194 182 192 179 196 246 304 361 368 364 324 306 247 204 1318 280 0 358 288 213 251 5 54 204 294 169 85 28 13 4 2 0 0 0 0
120 104 199 148 48 131 257 330 250 164 149 138 99 18 2 5 3 5 0 0 8 60 82 281 525 11 130 406 338 338 310 324 380 434 416 415 439 408 400 477 655 39 0 0 0 0 0 0 0 391 663 366 324 236 287 197 59 42 5 0 0 0 0
37 130 89 284 52 44 126 179 112 71 128 127 120 63 47 64 31 3 2 52 129 140 190 713 0 0 0 0 594 542 486 449 535 574 580 606 579 526 597 493 938 583 25 0 34 0 0 0 0 0 0 0 34 1102 366 315 261 183 20 0 0 0 0
70 22 3 15 19 8 0 41 43 48 59 122 139 69 113 57 108 58 59 121 241 203 560 0 0 0 0 0 6 585 573 474 510 585 647 662 653 707 697 748 781 1031 634 428 442 149 3 0 0 0 0 0 0 0 62 830 1063 368 69 1 3 1 0
0 0 2 0 0 12 0 66 94 131 256 274 128 169 159 190 155 186 193 182 217 220 531 1 0 0 0 0 0 325 633 846 713 680 776 775 866 1035 1131 1082 1139 1153 843 340 175 268 360 93 0 0 0 0 0 0 0 0 0 186 804 12 22 22 8
2 2 0 0 0 6 0 26 36 96 142 122 181 238 238 313 204 180 147 210 214 234 652 24 0 0 0 0 0 39 472 792 1139 1071 1005 1041 1178 1248 1255 1279 1187 1298 1195 856 422 288 468 405 121 10 5 5 25 10 0 0 0 0 0 422 387 280 174
19 19 14 9 10 0 1 0 19 79 192 301 326 222 298 338 519 478 499 358 343 558 89 0 0 0 0 0 0 3 454 877 1042 1057 1009 950 356 402 1234 1370 1342 1195 1277 1201 708 457 569 472 308 224 196 217 355 251 58 39 36 58 23 304 705 1115 513
42 26 94 111 97 57 69 114 130 86 239 268 262 246 282 418 453 553 516 516 534 698 66 0 0 0 0 0 0 46 423 701 808 752 823 950 1014 1188 1387 1471 1562 1303 1159 1243 670 96 90 583 424 345 275 400 413 114 0 0 0 0 0 587 315 422 496
0 10 106 58 19 13 54 112 91 120 148 214 296 275 339 446 468 548 555 554 685 468 150 0 0 0 0 0 0 129 452 557 576 842 945 1072 1227 1251 1247 1292 1156 844 668 971 978 163 0 3 400 413 433 438 261 22 0 0 0 0 0 0 0 2 0
0 0 1 3 2 23 3 8 42 243 321 369 331 381 463 382 236 276 414 486 299 618 289 0 0 0 0 0 0 96 389 498 627 741 932 1159 1278 1092 1059 674 418 643 621 1402 425 110 0 0 171 429 549 406 242 18 0 0 0 0 0 0 0 0 2
0 0 0 0 2 3 5 50 100 98 278 313 263 276 290 528 376 251 156 71 29 545 182 1 1 0 0 0 0 34 134 339 609 893 984 1066 1179 984 1064 554 192 176 353 1047 225 38 0 0 79 398 567 544 295 75 0 0 0 0 0 0 0 0 0
0 0 0 0 0 0 31 23 9 22 57 78 79 86 66 102 119 96 80 74 81 94 116 79 3 3 5 4 3 2 21 271 359 460 592 613 681 1014 763 757 293 14 91 82 88 90 83 64 17 393 642 559 281 31 0 0 0 2 3 0 0 0 0
0 0 0 0 0 0 0 0 0 0 2 9 15 10 56 77 52 22 1 0 0 0 1 1 0 0 1 2 2 1 36 101 166 258 475 438 560 625 737 551 366 1 0 0 1 6 2 0 0 18 139 170 111 13 0 6 0 0 1 0 0 0 0
0 0 0 0 0 0 0 0 0 0 0 0 0 0 0 1 1 1 6 4 18 1 0 0 0 0 0 1 6 1 0 47 45 2 112 451 395 439 397 364 252 0 0 0 1 4 6 34 89 0 1 0 0 0 3 6 2 7 0 2 9 4 4
0 0 0 0 0 0 0 0 0 0 0 0 0 0 0 0 0 0 0 0 0 0 0 0 0 0 0 0 0 1 2 2 0 0 45 145 185 98 157 102 36 29 14 1 0 0 0 3 24 10 3 0 1 0 0 0 2 11 20 20 3 4 1
0 0 0 0 0 0 0 0 0 0 0 0 0 0 0 0 0 0 0 0 0 0 0 0 0 0 0 0 0 0 0 0 0 0 42 111 82 14 10 46 0 0 0 0 0 0 0 0 0 22 14 3 0 0 0 0 0 3 12 1 4 0 2
Wind_Speed
23 23 21 20 18 17 16 14 14 16 17 18 20 19 20 20 22 21 20 18 17 15 13 12 13 13 13 13 12 11 12 11 10 9 12 11 11 14 13 13 16 16 16 12 13 13 17 18 20 21 21 20 20 nan nan nan 17 nan nan nan 15 16 16
24 24 23 21 18 18 16 14 15 19 20 20 20 21 21 21 21 20 18 17 15 14 13 14 14 15 14 15 14 13 12 11 11 11 12 10 11 15 14 13 13 14 15 15 15 12 15 18 20 20 nan nan nan nan nan nan nan nan nan nan nan nan nan
23 24 22 20 18 17 16 16 18 20 21 21 22 22 22 21 20 19 17 16 14 14 12 15 15 15 15 15 15 14 13 13 12 11 14 13 12 13 9 14 14 14 14 16 14 16 16 18 19 19 20 21 nan nan nan nan nan nan nan nan nan nan nan
22 22 20 19 18 17 17 17 19 21 21 22 23 23 22 20 19 18 17 16 15 15 14 15 14 14 15 15 15 14 13 12 13 12 13 14 11 15 11 14 13 14 14 15 16 16 16 18 19 19 20 19 nan nan nan nan nan nan nan nan nan nan nan
21 19 19 18 17 17 18 18 21 22 23 24 23 23 22 19 18 18 17 17 16 15 14 13 13 13 14 14 14 13 14 13 14 13 14 14 13 15 12 14 15 13 13 13 16 16 14 18 16 19 21 nan nan nan nan nan nan nan nan nan nan nan nan
20 19 18 17 18 19 21 21 23 24 24 24 23 22 21 19 18 18 17 16 16 14 13 12 12 12 12 13 14 14 15 15 15 14 15 16 15 14 15 14 14 13 12 13 15 15 16 16 17 19 22 21 nan nan nan nan nan nan nan nan nan nan nan
19 18 18 19 21 24 26 26 26 27 25 23 22 21 20 18 18 18 17 16 16 15 13 12 12 12 13 14 15 16 17 18 18 17 17 18 16 15 15 15 13 14 14 15 15 15 17 17 18 20 22 nan nan nan nan nan nan nan nan nan nan nan nan
17 16 17 21 22 25 29 32 30 26 23 21 20 21 20 19 19 18 17 17 16 16 16 16 16 16 15 nan 18 18 18 19 20 19 20 19 18 16 15 14 15 15 15 15 16 16 19 18 20 21 22 nan nan nan nan nan nan nan nan nan nan nan nan
8 10 15 20 21 24 30 33 30 23 21 21 21 20 20 19 19 19 18 18 18 19 20 21 20 nan nan nan nan 19 nan nan 20 20 20 19 19 18 17 16 15 17 15 16 16 17 19 19 20 20 22 nan nan 23 21 nan nan nan nan nan nan nan nan
9 8 10 13 16 18 23 26 25 20 20 21 21 20 20 19 20 20 20 20 21 22 nan nan nan nan nan nan nan 20 21 21 20 21 19 19 20 18 17 16 15 16 16 16 16 18 19 18 19 18 18 nan nan 22 nan nan nan nan nan nan nan nan nan
11 9 7 8 11 14 18 21 21 18 17 20 19 19 19 20 21 21 22 nan 23 23 nan nan nan nan nan nan nan nan 21 21 20 20 19 19 19 18 18 15 15 15 16 15 16 17 18 18 19 nan nan nan nan nan nan nan nan nan nan nan nan nan nan
10 10 9 8 8 8 12 14 14 16 18 19 18 19 20 21 21 21 nan nan nan nan nan nan nan nan nan nan nan nan nan nan nan nan 20 20 19 18 18 17 16 16 16 16 17 17 18 19 nan nan nan nan nan nan nan nan nan nan nan nan nan nan nan
13 13 11 10 8 6 8 11 13 15 17 17 17 18 19 19 19 20 nan nan nan nan nan nan nan nan nan nan nan nan nan nan nan nan 22 21 20 20 19 19 18 17 17 17 18 19 20 nan nan nan nan nan nan nan nan nan nan nan nan nan nan nan nan
14 14 13 11 10 9 11 12 13 14 15 15 16 16 18 18 19 nan nan nan nan nan nan nan nan nan nan nan nan nan nan nan nan nan 24 24 24 23 nan 22 21 20 19 19 20 21 nan nan nan nan nan nan nan nan nan nan nan nan nan nan nan nan nan
14 15 14 13 12 13 13 13 15 15 15 16 16 17 19 19 20 nan nan nan nan nan nan nan nan nan nan nan nan nan nan nan nan nan nan nan 26 24 24 nan nan 23 21 21 21 nan nan nan nan nan nan nan nan nan nan nan nan nan nan nan nan nan nan
13 14 14 15 14 15 16 17 17 16 16 16 16 17 19 20 20 nan nan nan nan nan nan nan nan nan nan nan nan nan nan nan nan nan nan nan nan nan 24 24 23 22 21 21 21 nan nan nan nan nan nan nan nan nan nan nan nan nan nan nan nan nan nan
15 14 14 15 15 17 18 19 18 17 18 18 17 16 17 18 nan nan nan nan nan nan nan nan nan nan nan nan nan nan nan nan nan nan nan nan nan nan nan 24 23 21 21 22 21 nan nan nan nan nan nan nan nan nan nan nan nan nan nan nan nan nan nan
19 17 16 15 16 17 19 19 19 18 19 18 18 17 17 17 nan nan nan nan nan nan nan nan nan nan nan nan nan nan nan nan nan nan nan nan nan nan nan nan nan 22 22 21 21 20 nan nan nan nan nan nan nan nan nan nan nan nan nan nan nan nan nan
20 19 19 18 18 19 19 20 20 20 19 19 19 nan 17 nan nan nan nan nan nan nan nan nan nan nan nan nan nan nan nan nan nan nan nan nan nan nan nan nan nan nan 22 20 20 20 20 21 nan nan nan nan nan nan nan nan nan nan nan nan nan nan nan
23 23 23 22 21 20 21 21 20 19 19 20 nan nan nan nan nan nan nan nan nan nan nan nan nan nan nan nan nan nan nan nan nan nan nan nan nan nan nan nan nan nan nan nan nan nan 19 19 19 18 nan 19 nan nan nan nan nan nan nan nan nan nan nan
22 22 24 23 23 22 22 21 20 21 nan nan nan nan nan nan nan nan nan nan nan nan nan nan nan nan nan nan nan 26 27 28 30 30 30 30 30 29 29 nan nan nan nan nan nan nan nan nan nan 18 nan 19 nan nan nan nan nan nan nan nan nan nan nan
25 23 24 nan 23 21 20 21 21 22 21 nan nan nan nan nan nan nan nan nan nan nan nan nan nan 23 24 25 24 24 26 27 28 29 28 29 29 30 30 30 27 28 29 28 nan 24 24 22 20 nan nan 19 19 19 nan nan nan nan nan nan nan nan nan
22 22 22 22 nan 21 20 20 20 22 22 22 nan nan nan nan nan nan nan nan nan nan nan 24 28 nan 26 23 23 23 24 25 26 27 27 27 28 29 30 29 30 nan nan nan nan nan nan nan nan 22 22 22 21 20 20 19 nan nan nan nan nan nan nan
nan 25 nan 25 nan nan 21 20 21 nan 24 25 26 nan nan nan nan nan nan nan 27 26 25 26 nan nan nan nan 21 21 22 22 22 23 24 24 26 28 28 27 28 30 nan nan nan nan nan nan nan nan nan nan nan 23 22 21 21 22 nan nan nan nan nan
nan nan nan nan nan nan nan nan nan nan nan 28 27 nan 26 nan 27 nan nan 27 26 25 26 nan nan nan nan nan nan 19 19 19 19 20 23 25 25 25 26 26 25 27 24 22 21 24 nan nan nan nan nan nan nan nan nan 26 24 24 nan nan nan nan nan
nan nan nan nan nan nan nan nan nan 31 32 31 29 28 29 28 26 27 26 25 26 25 25 nan nan nan nan nan nan 15 15 16 16 18 20 21 20 21 21 22 22 23 25 30 23 21 22 nan nan nan nan nan nan nan nan nan nan 29 26 nan nan nan nan
nan nan nan nan nan nan nan nan nan nan 29 31 32 33 31 28 27 25 24 24 25 24 26 nan nan nan nan nan nan nan 13 14 13 13 14 14 15 15 16 17 18 20 22 24 22 21 22 24 26 nan nan nan nan nan nan nan nan nan nan 30 28 28 29
nan nan nan nan nan nan nan nan nan nan 26 29 31 31 29 27 27 27 28 27 26 27 nan nan nan nan nan nan nan nan 17 17 16 14 14 15 15 12 15 16 16 16 19 21 22 23 22 24 25 26 25 26 26 28 nan nan nan nan nan 34 36 40 44
nan nan nan 25 nan nan nan 25 26 nan 23 24 26 27 27 25 25 27 29 29 28 28 nan nan nan nan nan nan nan nan 20 20 19 18 16 15 14 15 19 20 19 19 19 19 24 nan nan 23 25 25 26 28 31 34 nan nan nan nan nan 40 41 43 45
nan nan 27 nan nan nan nan 26 nan 23 22 21 23 24 25 25 26 28 29 29 28 28 32 nan nan nan nan nan nan 23 23 22 21 21 20 20 22 23 24 25 25 23 22 20 30 29 nan nan 24 25 27 30 33 nan nan nan nan nan nan nan nan nan nan
nan nan nan nan nan nan nan nan nan 20 21 21 22 23 24 26 28 29 29 31 32 29 36 nan nan nan nan nan nan nan 27 26 25 25 25 26 27 28 30 36 31 26 24 25 35 30 nan nan 26 27 28 30 35 nan nan nan nan nan nan nan nan nan nan
nan nan nan nan nan nan nan nan nan nan 25 24 25 24 24 26 27 28 32 nan nan 29 37 nan nan nan nan nan nan nan 30 29 29 28 29 30 32 33 35 39 36 32 31 36 36 nan nan nan nan 28 29 32 34 nan nan nan nan nan nan nan nan nan nan
nan nan nan nan nan nan nan nan nan nan nan nan nan nan nan 29 30 nan nan nan nan nan 36 nan nan nan nan nan nan nan nan 33 33 32 33 33 35 37 38 38 44 nan nan nan nan nan nan nan nan 28 32 35 39 nan nan nan nan nan nan nan nan nan nan
nan nan nan nan nan nan nan nan nan nan nan nan nan nan nan nan nan nan nan nan nan nan nan nan nan nan nan nan nan nan nan 37 37 36 36 37 37 38 39 42 41 nan nan nan nan nan nan nan nan nan 38 40 41 nan nan nan nan nan nan nan nan nan nan
nan nan nan nan nan nan nan nan nan nan nan nan nan nan nan nan nan nan nan nan nan nan nan nan nan nan nan nan nan nan nan nan nan nan 39 40 40 41 42 42 47 nan nan nan nan nan nan nan nan nan nan nan nan nan nan nan nan nan nan nan nan nan nan
nan nan nan nan nan nan nan nan nan nan nan nan nan nan nan nan nan nan nan nan nan nan nan nan nan nan nan nan nan nan nan nan nan nan nan 41 42 nan 44 45 nan nan nan nan nan nan nan nan nan nan nan nan nan nan nan nan nan nan nan nan nan nan nan
nan nan nan nan nan nan nan nan nan nan nan nan nan nan nan nan nan nan nan nan nan nan nan nan nan nan nan nan nan nan nan nan nan nan nan 44 nan nan nan nan nan nan nan nan nan nan nan nan nan nan nan nan nan nan nan nan nan nan nan nan nan nan nan
Wind_Direction
262 266 269 269 271 272 272 273 268 266 266 266 265 266 264 264 262 262 264 264 265 266 268 264 264 265 263 262 261 259 248 255 258 257 262 264 267 269 261 261 259 256 261 251 260 271 274 277 274 264 263 260 260 nan nan nan 260 nan nan nan 272 274 276
262 265 265 265 267 266 268 265 264 262 262 262 263 264 262 263 262 263 265 265 267 268 267 265 263 263 261 262 265 262 261 258 256 248 270 259 258 264 273 269 268 268 271 267 269 266 276 279 278 279 nan nan nan nan nan nan nan nan nan nan nan nan nan
265 265 266 268 266 263 261 261 257 256 260 263 264 264 263 264 263 264 267 269 267 265 263 263 265 265 264 266 267 265 264 267 262 260 261 263 260 274 271 272 273 272 271 274 279 277 272 275 281 286 284 287 nan nan nan nan nan nan nan nan nan nan nan
272 272 272 271 264 263 259 256 255 256 257 261 263 263 262 261 259 262 263 266 263 259 256 261 267 268 268 268 270 273 274 273 270 268 264 274 268 272 274 272 274 274 276 279 280 280 279 279 284 286 284 282 nan nan nan nan nan nan nan nan nan nan nan
272 270 277 274 265 264 261 254 249 252 255 258 261 261 261 259 258 258 259 261 261 260 259 258 259 265 266 267 270 272 273 276 269 269 271 267 265 268 268 267 256 243 262 270 278 276 278 282 287 286 285 nan nan nan nan nan nan nan nan nan nan nan nan
272 274 274 268 260 255 252 251 250 250 251 255 258 260 260 260 258 260 259 258 258 256 255 257 261 257 264 271 274 276 275 278 274 272 269 268 271 266 273 269 270 270 270 264 269 278 275 279 281 284 282 283 nan nan nan nan nan nan nan nan nan nan nan
268 270 263 257 251 248 245 244 244 246 249 254 258 258 258 258 256 256 254 251 248 252 255 257 261 266 268 273 275 275 273 269 266 269 264 267 268 265 266 270 269 272 267 266 271 277 280 283 284 283 280 nan nan nan nan nan nan nan nan nan nan nan nan
263 260 252 253 257 257 246 239 235 241 248 254 258 256 255 252 251 251 248 245 246 252 259 264 266 265 261 nan 265 263 264 263 266 263 261 265 265 267 264 263 266 266 266 274 277 281 281 282 284 286 289 nan nan nan nan nan nan nan nan nan nan nan nan
260 257 248 247 252 261 256 242 235 239 247 252 254 254 251 251 250 248 243 243 251 261 266 267 266 nan nan nan nan 259 nan nan 265 264 264 265 263 266 267 264 270 268 269 273 279 276 278 279 281 288 291 nan nan 292 290 nan nan nan nan nan nan nan nan
263 263 250 251 252 260 258 246 238 238 249 254 253 251 252 250 249 246 245 251 260 267 nan nan nan nan nan nan nan 259 262 264 268 269 265 264 265 266 266 269 263 266 270 272 273 275 275 279 281 285 286 nan nan 291 nan nan nan nan nan nan nan nan nan
265 267 265 271 255 249 245 241 238 243 255 255 254 252 254 254 251 251 252 nan 266 270 nan nan nan nan nan nan nan nan 261 264 265 266 265 264 264 263 264 263 260 264 267 272 272 276 278 281 283 nan nan nan nan nan nan nan nan nan nan nan nan nan nan
265 266 262 261 256 253 252 246 247 253 256 256 256 258 258 258 256 256 nan nan nan nan nan nan nan nan nan nan nan nan nan nan nan nan 259 259 261 262 263 260 259 261 267 268 273 277 280 282 nan nan nan nan nan nan nan nan nan nan nan nan nan nan nan
265 266 262 256 241 238 250 252 254 258 259 258 258 262 262 263 262 262 nan nan nan nan nan nan nan nan nan nan nan nan nan nan nan nan 261 260 261 262 265 265 265 265 270 274 279 280 282 nan nan nan nan nan nan nan nan nan nan nan nan nan nan nan nan
264 262 262 253 245 240 240 246 252 255 260 263 265 266 268 269 268 nan nan nan nan nan nan nan nan nan nan nan nan nan nan nan nan nan 262 262 261 263 nan 264 266 269 273 279 281 282 nan nan nan nan nan nan nan nan nan nan nan nan nan nan nan nan nan
256 255 258 252 246 245 242 244 247 249 254 257 263 269 272 268 268 nan nan nan nan nan nan nan nan nan nan nan nan nan nan nan nan nan nan nan 261 257 257 nan nan 269 275 278 282 nan nan nan nan nan nan nan nan nan nan nan nan nan nan nan nan nan nan
252 253 256 250 250 249 245 247 247 245 243 247 254 260 265 266 267 nan nan nan nan nan nan nan nan nan nan nan nan nan nan nan nan nan nan nan nan nan 259 259 263 267 269 275 279 nan nan nan nan nan nan nan nan nan nan nan nan nan nan nan nan nan nan
253 254 256 249 250 247 246 246 247 246 243 242 248 250 258 262 nan nan nan nan nan nan nan nan nan nan nan nan nan nan nan nan nan nan nan nan nan nan nan 260 260 263 266 272 276 nan nan nan nan nan nan nan nan nan nan nan nan nan nan nan nan nan nan
254 257 255 248 245 243 244 247 247 248 245 243 244 246 251 255 nan nan nan nan nan nan nan nan nan nan nan nan nan nan nan nan nan nan nan nan nan nan nan nan nan 262 263 268 272 275 nan nan nan nan nan nan nan nan nan nan nan nan nan nan nan nan nan
252 257 256 249 245 242 245 250 249 245 248 247 245 nan 248 nan nan nan nan nan nan nan nan nan nan nan nan nan nan nan nan nan nan nan nan nan nan nan nan nan nan nan 264 268 271 273 276 281 nan nan nan nan nan nan nan nan nan nan nan nan nan nan nan
254 261 255 252 247 245 248 249 249 249 250 252 nan nan nan nan nan nan nan nan nan nan nan nan nan nan nan nan nan nan nan nan nan nan nan nan nan nan nan nan nan nan nan nan nan nan 277 279 279 279 nan 282 nan nan nan nan nan nan nan nan nan nan nan
257 257 257 251 247 245 246 246 244 245 nan nan nan nan nan nan nan nan nan nan nan nan nan nan nan nan nan nan nan 273 271 269 269 269 269 269 267 266 263 nan nan nan nan nan nan nan nan nan nan 275 nan 278 nan nan nan nan nan nan nan nan nan nan nan
250 251 255 nan 248 249 250 247 244 244 247 nan nan nan nan nan nan nan nan nan nan nan nan nan nan 272 273 273 272 274 273 271 270 271 271 271 270 269 267 262 259 253 247 243 nan 244 248 252 268 nan nan 274 277 280 nan nan nan nan nan nan nan nan nan
259 264 258 253 nan 252 251 247 247 246 246 247 nan nan nan nan nan nan nan nan nan nan nan 261 252 nan 242 259 275 272 271 269 268 267 267 268 268 268 266 262 258 nan nan nan nan nan nan nan nan 252 259 275 282 280 280 283 nan nan nan nan nan nan nan
nan 268 nan 249 nan nan 248 253 252 nan 244 241 242 nan nan nan nan nan nan nan 261 259 260 258 nan nan nan nan 254 269 268 265 263 265 267 267 267 266 265 262 260 261 nan nan nan nan nan nan nan nan nan nan nan 266 282 284 281 284 nan nan nan nan nan
nan nan nan nan nan nan nan nan nan nan nan 240 240 nan 245 nan 253 nan nan 259 259 261 261 nan nan nan nan nan nan 258 266 263 263 264 265 264 262 261 261 262 260 260 258 256 255 262 nan nan nan nan nan nan nan nan nan 262 271 281 nan nan nan nan nan
nan nan nan nan nan nan nan nan nan 243 239 235 237 240 242 244 249 251 253 255 257 260 262 nan nan nan nan nan nan 250 263 261 257 256 253 255 256 255 256 258 260 259 258 257 252 254 258 nan nan nan nan nan nan nan nan nan nan 257 261 nan nan nan nan
nan nan nan nan nan nan nan nan nan nan 254 245 239 238 240 242 242 244 245 248 252 255 257 nan nan nan nan nan nan nan 256 250 249 249 246 245 245 253 254 250 251 257 258 262 258 256 256 259 263 nan nan nan nan nan nan nan nan nan nan 259 268 272 278
nan nan nan nan nan nan nan nan nan nan 257 253 246 240 238 238 237 239 240 240 244 250 nan nan nan nan nan nan nan nan 261 254 252 252 247 241 236 226 243 246 245 246 254 260 262 263 263 264 263 264 266 267 266 266 nan nan nan nan nan 266 262 262 264
nan nan nan 263 nan nan nan 264 264 nan 259 253 244 240 237 240 245 246 243 242 245 250 nan nan nan nan nan nan nan nan 270 267 262 258 253 254 254 251 247 248 249 250 249 255 267 nan nan 263 269 270 270 269 266 264 nan nan nan nan nan 264 265 266 268
nan nan 257 nan nan nan nan 258 nan 261 261 258 251 245 247 250 251 250 246 244 245 251 255 nan nan nan nan nan nan 271 272 272 271 268 261 252 250 250 250 251 253 251 253 253 269 278 nan nan 268 270 271 272 269 nan nan nan nan nan nan nan nan nan nan
nan nan nan nan nan nan nan nan nan 258 263 261 256 254 255 257 252 246 246 245 244 249 257 nan nan nan nan nan nan nan 272 272 271 270 268 265 258 256 255 257 250 254 254 255 272 277 nan nan 268 266 267 271 271 nan nan nan nan nan nan nan nan nan nan
nan nan nan nan nan nan nan nan nan nan 260 259 257 256 253 256 257 257 251 nan nan 249 261 nan nan nan nan nan nan nan 269 270 271 271 269 270 269 262 261 263 263 254 249 253 274 nan nan nan nan 271 270 271 271 nan nan nan nan nan nan nan nan nan nan
nan nan nan nan nan nan nan nan nan nan nan nan nan nan nan 257 256 nan nan nan nan nan 260 nan nan nan nan nan nan nan nan 270 270 268 268 266 265 267 265 264 271 nan nan nan nan nan nan nan nan 273 273 272 273 nan nan nan nan nan nan nan nan nan nan
nan nan nan nan nan nan nan nan nan nan nan nan nan nan nan nan nan nan nan nan nan nan nan nan nan nan nan nan nan nan nan 268 268 267 265 267 267 266 265 264 262 nan nan nan nan nan nan nan nan nan 261 265 263 nan nan nan nan nan nan nan nan nan nan
nan nan nan nan nan nan nan nan nan nan nan nan nan nan nan nan nan nan nan nan nan nan nan nan nan nan nan nan nan nan nan nan nan nan 266 266 266 265 264 262 263 nan nan nan nan nan nan nan nan nan nan nan nan nan nan nan nan nan nan nan nan nan nan
nan nan nan nan nan nan nan nan nan nan nan nan nan nan nan nan nan nan nan nan nan nan nan nan nan nan nan nan nan nan nan nan nan nan nan 266 264 nan 261 262 nan nan nan nan nan nan nan nan nan nan nan nan nan nan nan nan nan nan nan nan nan nan nan
nan nan nan nan nan nan nan nan nan nan nan nan nan nan nan nan nan nan nan nan nan nan nan nan nan nan nan nan nan nan nan nan nan nan nan 270 nan nan nan nan nan nan nan nan nan nan nan nan nan nan nan nan nan nan nan nan nan nan nan nan nan nan nan